Regional Weather Roundup
Issued by NWS Little Rock, AR

Home | Current Version | Previous Version | Text Only | Print | Product List | Glossary On
Versions: 1 2 3 4 5 6 7 8 9 10 11 12 13 14 15 16 17 18 19 20 21 22 23 24 25 26 27 28 29 30 31 32 33 34 35 36 37 38 39 40 41 42 43 44 45 46 47 48 49 50
000
ASUS44 KLZK 171505
RWRLZK

WEATHER ROUNDUP FOR ARKANSAS
NATIONAL WEATHER SERVICE LITTLE ROCK AR
1000 AM CDT TUE OCT 17 2017

NOTE: "FAIR" INDICATES FEW OR NO CLOUDS BELOW 12,000 FEET WITH NO
SIGNIFICANT WEATHER AND/OR OBSTRUCTIONS TO VISIBILITY.

ARZ001-003-010-029-171600-
NORTHWEST ARKANSAS

CITY           SKY/WX    TMP DP  RH WIND       PRES   REMARKS
FAYETTEVILLE   MOSUNNY   50  46  86 CALM      30.33S
FORT SMITH     SUNNY     55  48  77 E7        30.35R
HARRISON       MOSUNNY   54  41  61 S9        30.35R
BENTONVILLE    SUNNY     55  43  63 S7        30.35R
ROGERS         MOSUNNY   55  43  63 S9        30.34R
SILOAM SPGS    SUNNY     56  44  64 S7        30.33R
SPRINGDALE     SUNNY     52  43  71 SE6       30.35R
$$

ARZ004-005-016-171600-
NORTH CENTRAL ARKANSAS

CITY           SKY/WX    TMP DP  RH WIND       PRES   REMARKS
BATESVILLE     SUNNY     55  44  66 CALM      30.39R
FLIPPIN        MOSUNNY   50  43  77 CALM      30.37S
MTN HOME       SUNNY     54  42  64 S3        30.35R
$$

ARZ040-041-171600-
WEST CENTRAL ARKANSAS

CITY           SKY/WX    TMP DP  RH WIND       PRES   REMARKS
MENA           SUNNY     55  48  76 CALM      30.36S
$$

ARZ009-017-025-026-028-171600-
NORTHEAST ARKANSAS

CITY           SKY/WX    TMP DP  RH WIND       PRES   REMARKS
JONESBORO      SUNNY     57  46  66 SE7       30.38S
NEWPORT        SUNNY     55  46  71 E5        30.38S
WALNUT RIDGE   MOSUNNY   53  46  77 N3        30.39R
BLYTHEVILLE    SUNNY     60  47  61 SE5       30.39R
$$

ARZ022-023-033-042-044-171600-
CENTRAL ARKANSAS

CITY           SKY/WX    TMP DP  RH WIND       PRES   REMARKS
LITTLE ROCK    MOSUNNY   57  46  66 CALM      30.38R
N LITTLE ROCK    N/A     58  42  55 E7        30.39R
JACKSONVILLE   SUNNY     57  44  61 E3        30.37R
SEARCY         SUNNY     57  44  62 VRB5      30.38S
HOT SPRINGS    SUNNY     55  47  74 NE3       30.36S
RUSSELLVILLE   SUNNY     53  48  83 CALM      30.37R
CLINTON        FAIR      50  45  81 CALM      30.38F
$$

ARZ036-171600-
EAST ARKANSAS

CITY           SKY/WX    TMP DP  RH WIND       PRES   REMARKS
WEST MEMPHIS   SUNNY     59  45  59 E8        30.35S
$$

ARZ050-053-066-070-073-171600-
SOUTHWEST ARKANSAS

CITY           SKY/WX    TMP DP  RH WIND       PRES   REMARKS
ARKADELPHIA    FAIR      55  46  71 CALM      30.36S
CAMDEN         SUNNY     57  43  58 CALM      30.34F
TEXARKANA      SUNNY     55  43  63 NE5       30.35R
EL DORADO      SUNNY     57  45  64 E8        30.34S
$$

ARZ056-057-069-171600-
SOUTHEAST ARKANSAS

CITY           SKY/WX    TMP DP  RH WIND       PRES   REMARKS
PINE BLUFF     SUNNY     60  42  51 E8        30.35S
STUTTGART      SUNNY     60  44  55 E8        30.36R
MONTICELLO     SUNNY     60  46  59 E8        30.35R

$$





USA.gov is the U.S. government's official web portal to all federal, state and local government web resources and services.